Project,Study,Ord_Occ,Event_Num,Cast_ID,Date_Time_UTC,Date_Time_PST,Lat_Dec,Lon_Dec,Sta_ID,Line,Sta,Depth,Pressure,PrQ,Temp1,Temp1Q,Temp2,Temp2Q,TempAve,Salt1,Salt1Q,Salt1_Corr,Salt2,Salt2Q,Salt2_Corr,SaltAve_Corr,Ox1,Ox1Q,Ox1_CruiseCorr,Ox1_StaCorr,Ox2,Ox2Q,Ox2_CruiseCorr,Ox2_StaCorr,OxAve_StaCorr,Ox1uM,Ox1uM_CruiseCorr,Ox1uM_StaCorr,Ox2uM,Ox2uM_CruiseCorr,Ox2uM_StaCorr,OxAveuM_StaCorr,FluorV,FluorQ,EstChl_CruiseCorr,EstChl_StaCorr,ISUSV,ISUSQ,EstNO3_CruiseCorr,EstNO3_StaCorr,SigThetaTS1,SigThetaTS1Q,SigThetaTS2,SigThetaTS2Q,BAT,XMiss,TransQ,pH,pHQ,SPAR,SPARQ,PAR,PARQ,PoT1,PoT2,DynHt,SVA,OxSat1,OxSat2,BTL_Depth,BTL_Temp,SaltB,OxB,OxBuM,Chl-a,Phaeo,NO3,NO2,NH4,PO4,SIL
CalCOFI,2101RL,039,,2101_039u,24-Jan-2021 06:13:20,23-Jan-2021 22:13:20,33.15524,-120.00634,086.7 055.0,086.7,055.0,518.000,522.343,,6.0913,,6.0920,,6.0917,34.2990,,34.3048,34.2960,,34.2980,34.3014,0.3085,,0.3228,0.3283,0.3072,,0.3243,0.3328,0.3306,13.414,14.3020,34.7890,13.361,15.3690,35.3483,35.0687,0.0321,,,, ,, , ,26.9929,,26.9905,,0.7030,83.8833,,,,1.0279E+00,,1.0000E-12,,6.0454,6.0460,0.9249,112.892,4.454,4.436,,,,,,,,,,,,
CalCOFI,2101RL,039,,2101_039u,24-Jan-2021 06:13:22,23-Jan-2021 22:13:22,33.15524,-120.00634,086.7 055.0,086.7,055.0,517.000,521.334,,6.0939,,6.0948,,6.0944,34.2985,,34.3043,34.2956,,34.2976,34.3010,0.3099,,0.3242,0.3297,0.3046,,0.3215,0.3301,0.3299,13.477,14.3679,34.8368,13.246,15.4390,35.2599,35.0484,0.0335,,,, ,, , ,26.9922,,26.9899,,0.7039,83.8647,,,,3.5379E+00,,1.0000E-12,,6.0481,6.0489,0.9249,112.950,4.475,4.398,,,,,,,,,,,,
CalCOFI,2101RL,039,,2101_039u,24-Jan-2021 06:13:22,23-Jan-2021 22:13:22,33.15524,-120.00634,086.7 055.0,086.7,055.0,516.000,520.324,,6.0954,,6.0958,,6.0956,34.2982,,34.3040,34.2955,,34.2975,34.3008,0.3054,,0.3195,0.3250,0.3161,,0.3337,0.3424,0.3337,13.282,14.1638,34.6888,13.745,15.2222,35.6434,35.1661,0.0330,,,, ,, , ,26.9918,,26.9896,,0.7040,83.8618,,,,3.7039E+00,,1.0000E-12,,6.0496,6.0500,0.9249,112.976,4.410,4.564,,,,,,,,,,,,
CalCOFI,2101RL,039,,2101_039u,24-Jan-2021 06:13:23,23-Jan-2021 22:13:23,33.15524,-120.00634,086.7 055.0,086.7,055.0,515.000,519.315,,6.0956,,6.0962,,6.0959,34.2982,,34.3040,34.2953,,34.2973,34.3007,0.3080,,0.3223,0.3277,0.3113,,0.3286,0.3372,0.3325,13.394,14.2810,34.7738,13.537,15.3467,35.4835,35.1287,0.0323,,,, ,, , ,26.9918,,26.9894,,0.7040,83.8615,,,,3.6947E+00,,1.0000E-12,,6.0499,6.0505,0.9249,112.966,4.448,4.495,515,,34.2884,0.320,13.95,,,,,,,
CalCOFI,2101RL,039,,2101_039u,24-Jan-2021 06:13:25,23-Jan-2021 22:13:25,33.15525,-120.00634,086.7 055.0,086.7,055.0,514.000,518.305,,6.0956,,6.0963,,6.0960,34.2984,,34.3042,34.2953,,34.2973,34.3008,0.3082,,0.3225,0.3280,0.3100,,0.3273,0.3358,0.3319,13.404,14.2915,34.7814,13.482,15.3579,35.4413,35.1114,0.0331,,,, ,, , ,26.9919,,26.9894,,0.7043,83.8557,,,,3.6619E+00,,1.0000E-12,,6.0500,6.0507,0.9252,112.941,4.451,4.476,,,,,,,,,,,,
CalCOFI,2101RL,039,,2101_039u,24-Jan-2021 06:13:28,23-Jan-2021 22:13:28,33.15526,-120.00634,086.7 055.0,086.7,055.0,513.000,517.295,,6.0958,,6.0963,,6.0961,34.2982,,34.3040,34.2952,,34.2972,34.3006,0.3080,,0.3223,0.3277,0.3101,,0.3274,0.3359,0.3318,13.392,14.2789,34.7723,13.487,15.3445,35.4451,35.1087,0.0330,,,, ,, , ,26.9917,,26.9893,,0.7044,83.8535,,,,3.1155E+00,,1.0000E-12,,6.0503,6.0508,0.9255,112.945,4.447,4.478,,,,,,,,,,,,
CalCOFI,2101RL,039,,2101_039u,24-Jan-2021 06:13:29,23-Jan-2021 22:13:29,33.15526,-120.00636,086.7 055.0,086.7,055.0,512.000,516.286,,6.0965,,6.0968,,6.0967,34.2980,,34.3038,34.2951,,34.2971,34.3005,0.3079,,0.3221,0.3276,0.3103,,0.3276,0.3362,0.3319,13.391,14.2779,34.7715,13.495,15.3434,35.4513,35.1114,0.0322,,,, ,, , ,26.9914,,26.9892,,0.7040,83.8618,,,,3.4541E+00,,1.0000E-12,,6.0511,6.0514,0.9255,112.956,4.446,4.481,,,,,,,,,,,,
CalCOFI,2101RL,039,,2101_039u,24-Jan-2021 06:13:30,23-Jan-2021 22:13:30,33.15526,-120.00636,086.7 055.0,086.7,055.0,511.000,515.276,,6.0967,,6.0973,,6.0970,34.2980,,34.3038,34.2950,,34.2970,34.3004,0.3093,,0.3236,0.3291,0.3163,,0.3339,0.3426,0.3359,13.450,14.3397,34.8163,13.756,15.4090,35.6518,35.2341,0.0331,,,, ,, , ,26.9914,,26.9889,,0.7037,83.8693,,,,2.9468E+00,,1.0000E-12,,6.0514,6.0520,0.9255,112.947,4.466,4.568,,,,,,,,,,,,
CalCOFI,2101RL,039,,2101_039u,24-Jan-2021 06:13:31,23-Jan-2021 22:13:31,33.15526,-120.00636,086.7 055.0,086.7,055.0,510.000,514.266,,6.0975,,6.0993,,6.0984,34.2975,,34.3033,34.2940,,34.2960,34.2997,0.3178,,0.3325,0.3381,0.3117,,0.3291,0.3377,0.3379,13.819,14.7259,35.0963,13.556,15.8194,35.4981,35.2972,0.0324,,,, ,, , ,26.9909,,26.9879,,0.7041,83.8606,,,,3.3508E+00,,1.0000E-12,,6.0523,6.0541,0.9255,112.976,4.589,4.501,,,,,,,,,,,,
CalCOFI,2101RL,039,,2101_039u,24-Jan-2021 06:13:32,23-Jan-2021 22:13:32,33.15526,-120.00636,086.7 055.0,086.7,055.0,509.000,513.257,,6.0997,,6.1025,,6.1011,34.2963,,34.3021,34.2923,,34.2943,34.2982,0.3219,,0.3368,0.3424,0.3187,,0.3365,0.3451,0.3438,13.997,14.9123,35.2314,13.860,16.0173,35.7318,35.4816,0.0332,,,, ,, , ,26.9896,,26.9861,,0.7041,83.8594,,,,2.6541E+00,,1.0000E-12,,6.0546,6.0574,0.9255,113.087,4.648,4.603,,,,,,,,,,,,
CalCOFI,2101RL,039,,2101_039u,24-Jan-2021 06:13:33,23-Jan-2021 22:13:33,33.15526,-120.00636,086.7 055.0,086.7,055.0,508.000,512.247,,6.1018,,6.1059,,6.1039,34.2950,,34.3008,34.2903,,34.2923,34.2966,0.3249,,0.3399,0.3455,0.3311,,0.3497,0.3584,0.3520,14.129,15.0504,35.3315,14.397,16.1641,36.1444,35.7380,0.0332,,,, ,, , ,26.9884,,26.9841,,0.7044,83.8534,,,,3.7304E+00,,1.0000E-12,,6.0568,6.0609,0.9255,113.193,4.692,4.781,,,,,,,,,,,,
CalCOFI,2101RL,039,,2101_039u,24-Jan-2021 06:13:34,23-Jan-2021 22:13:34,33.15526,-120.00636,086.7 055.0,086.7,055.0,507.000,511.238,,6.1093,,6.1186,,6.1140,34.2923,,34.2981,34.2878,,34.2898,34.2940,0.3292,,0.3444,0.3500,0.3295,,0.3480,0.3567,0.3534,14.314,15.2441,35.4719,14.327,16.3698,36.0906,35.7813,0.0334,,,, ,, , ,26.9852,,26.9806,,0.7044,83.8536,,,,3.6947E+00,,1.0000E-12,,6.0643,6.0736,0.9255,113.481,4.754,4.759,,,,,,,,,,,,
CalCOFI,2101RL,039,,2101_039u,24-Jan-2021 06:13:34,23-Jan-2021 22:13:34,33.15526,-120.00636,086.7 055.0,086.7,055.0,506.000,510.228,,6.1256,,6.1329,,6.1293,34.2902,,34.2960,34.2866,,34.2886,34.2923,0.3296,,0.3449,0.3505,0.3270,,0.3453,0.3540,0.3523,14.334,15.2650,35.4871,14.219,16.3920,36.0076,35.7474,0.0321,,,, ,, , ,26.9815,,26.9777,,0.7044,83.8536,,,,3.6947E+00,,1.0000E-12,,6.0807,6.0879,0.9255,113.840,4.763,4.725,,,,,,,,,,,,
CalCOFI,2101RL,039,,2101_039u,24-Jan-2021 06:13:35,23-Jan-2021 22:13:35,33.15526,-120.00636,086.7 055.0,086.7,055.0,505.000,509.218,,6.1400,,6.1390,,6.1395,34.2879,,34.2937,34.2855,,34.2875,34.2906,0.3278,,0.3430,0.3486,0.3294,,0.3479,0.3566,0.3526,14.254,15.1813,35.4264,14.324,16.3031,36.0883,35.7574,0.0332,,,, ,, , ,26.9778,,26.9761,,0.7044,83.8536,,,,3.6947E+00,,1.0000E-12,,6.0951,6.0941,0.9255,114.187,4.737,4.760,,,,,,,,,,,,
CalCOFI,2101RL,039,,2101_039u,24-Jan-2021 06:13:36,23-Jan-2021 22:13:36,33.15526,-120.00636,086.7 055.0,086.7,055.0,504.000,508.209,,6.1453,,6.1468,,6.1461,34.2863,,34.2921,34.2832,,34.2852,34.2887,0.3257,,0.3408,0.3464,0.3344,,0.3532,0.3619,0.3542,14.163,15.0860,35.3574,14.542,16.2019,36.2558,35.8066,0.0327,,,, ,, , ,26.9759,,26.9733,,0.7044,83.8536,,,,3.5995E+00,,1.0000E-12,,6.1005,6.1019,0.9255,114.362,4.708,4.834,,,,,,,,,,,,
CalCOFI,2101RL,039,,2101_039u,24-Jan-2021 06:13:36,23-Jan-2021 22:13:36,33.15526,-120.00636,086.7 055.0,086.7,055.0,503.000,507.199,,6.1366,,6.1454,,6.1410,34.2879,,34.2937,34.2829,,34.2849,34.2893,0.3246,,0.3396,0.3452,0.3268,,0.3451,0.3538,0.3495,14.117,15.0379,35.3224,14.209,16.1507,35.9999,35.6612,0.0329,,,, ,, , ,26.9783,,26.9732,,0.7044,83.8536,,,,3.6888E+00,,1.0000E-12,,6.0919,6.1006,0.9255,114.114,4.691,4.723,,,,,,,,,,,,
CalCOFI,2101RL,039,,2101_039u,24-Jan-2021 06:13:38,23-Jan-2021 22:13:38,33.15526,-120.00637,086.7 055.0,086.7,055.0,502.000,506.190,,6.1283,,6.1316,,6.1300,34.2899,,34.2957,34.2864,,34.2884,34.2921,0.3299,,0.3452,0.3508,0.3298,,0.3483,0.3570,0.3539,14.346,15.2776,35.4962,14.341,16.4054,36.1014,35.7988,0.0325,,,, ,, , ,26.9809,,26.9777,,0.7044,83.8536,,,,3.6580E+00,,1.0000E-12,,6.0837,6.0870,0.9255,113.845,4.767,4.765,,,,,,,,,,,,
CalCOFI,2101RL,039,,2101_039u,24-Jan-2021 06:13:40,23-Jan-2021 22:13:40,33.15526,-120.00638,086.7 055.0,086.7,055.0,501.000,505.180,,6.1310,,6.1312,,6.1311,34.2888,,34.2946,34.2859,,34.2879,34.2913,0.3369,,0.3525,0.3581,0.3367,,0.3556,0.3644,0.3613,14.653,15.5990,35.7292,14.640,16.7468,36.3312,36.0302,0.0332,,,, ,, , ,26.9797,,26.9773,,0.7041,83.8593,,,,3.1412E+00,,1.0000E-12,,6.0865,6.0867,0.9255,113.944,4.869,4.865,,,,,,,,,,,,
CalCOFI,2101RL,039,,2101_039u,24-Jan-2021 06:13:41,23-Jan-2021 22:13:41,33.15526,-120.00638,086.7 055.0,086.7,055.0,500.000,504.170,,6.1435,,6.1425,,6.1430,34.2848,,34.2906,34.2823,,34.2843,34.2875,0.3455,,0.3615,0.3672,0.3431,,0.3624,0.3713,0.3693,15.026,15.9894,36.0122,14.920,17.1616,36.5463,36.2793,0.0329,,,, ,, , ,26.9749,,26.9730,,0.7042,83.8590,,,,3.7066E+00,,1.0000E-12,,6.0991,6.0981,0.9255,114.396,4.994,4.959,,,,,,,,,,,,
CalCOFI,2101RL,039,,2101_039u,24-Jan-2021 06:13:42,23-Jan-2021 22:13:42,33.15526,-120.00640,086.7 055.0,086.7,055.0,499.000,503.161,,6.1512,,6.1542,,6.1527,34.2818,,34.2876,34.2779,,34.2799,34.2838,0.3474,,0.3635,0.3692,0.3421,,0.3613,0.3702,0.3697,15.105,16.0721,36.0722,14.876,17.2494,36.5125,36.2924,0.0330,,,, ,, , ,26.9716,,26.9681,,0.7033,83.8778,,,,3.6947E+00,,1.0000E-12,,6.1068,6.1098,0.9255,114.702,5.021,4.945,,,,,,,,,,,,
CalCOFI,2101RL,039,,2101_039u,24-Jan-2021 06:13:43,23-Jan-2021 22:13:43,33.15526,-120.00640,086.7 055.0,086.7,055.0,498.000,502.151,,6.1556,,6.1584,,6.1570,34.2807,,34.2865,34.2773,,34.2793,34.2829,0.3466,,0.3627,0.3684,0.3389,,0.3579,0.3668,0.3676,15.073,16.0386,36.0479,14.737,17.2138,36.4057,36.2268,0.0331,,,, ,, , ,26.9701,,26.9671,,0.7033,83.8772,,,,3.6947E+00,,1.0000E-12,,6.1113,6.1141,0.9255,114.831,5.011,4.900,,,,,,,,,,,,
CalCOFI,2101RL,039,,2101_039u,24-Jan-2021 06:13:43,23-Jan-2021 22:13:43,33.15526,-120.00640,086.7 055.0,086.7,055.0,497.000,501.142,,6.1604,,6.1637,,6.1621,34.2805,,34.2863,34.2774,,34.2794,34.2829,0.3427,,0.3586,0.3642,0.3429,,0.3622,0.3710,0.3676,14.904,15.8617,35.9197,14.913,17.0259,36.5409,36.2303,0.0319,,,, ,, , ,26.9693,,26.9664,,0.7033,83.8772,,,,3.1282E+00,,1.0000E-12,,6.1162,6.1195,0.9255,114.897,4.955,4.959,,,,,,,,,,,,
CalCOFI,2101RL,039,,2101_039u,24-Jan-2021 06:13:44,23-Jan-2021 22:13:44,33.15526,-120.00640,086.7 055.0,086.7,055.0,496.000,500.132,,6.1650,,6.1670,,6.1660,34.2803,,34.2861,34.2774,,34.2794,34.2828,0.3412,,0.3570,0.3627,0.3444,,0.3638,0.3726,0.3677,14.839,15.7937,35.8703,14.980,16.9536,36.5924,36.2314,0.0317,,,, ,, , ,26.9685,,26.9660,,0.7037,83.8685,,,,3.6848E+00,,1.0000E-12,,6.1208,6.1229,0.9255,114.961,4.935,4.982,,,,,,,,,,,,
CalCOFI,2101RL,039,,2101_039u,24-Jan-2021 06:13:45,23-Jan-2021 22:13:45,33.15526,-120.00640,086.7 055.0,086.7,055.0,495.000,499.123,,6.1682,,6.1685,,6.1684,34.2802,,34.2860,34.2774,,34.2794,34.2827,0.3438,,0.3597,0.3654,0.3446,,0.3640,0.3729,0.3692,14.951,15.9109,35.9553,14.986,17.0782,36.5970,36.2762,0.0323,,,, ,, , ,26.9681,,26.9658,,0.7035,83.8721,,,,3.4102E+00,,1.0000E-12,,6.1241,6.1244,0.9255,114.995,4.972,4.983,,,,,,,,,,,,
CalCOFI,2101RL,039,,2101_039u,24-Jan-2021 06:13:46,23-Jan-2021 22:13:46,33.15526,-120.00642,086.7 055.0,086.7,055.0,494.000,498.113,,6.1679,,6.1684,,6.1682,34.2803,,34.2861,34.2773,,34.2793,34.2827,0.3478,,0.3639,0.3696,0.3486,,0.3682,0.3771,0.3734,15.126,16.0941,36.0881,15.159,17.2728,36.7300,36.4091,0.0326,,,, ,, , ,26.9682,,26.9657,,0.7038,83.8671,,,,3.5302E+00,,1.0000E-12,,6.1239,6.1244,0.9255,114.971,5.030,5.041,,,,,,,,,,,,
CalCOFI,2101RL,039,,2101_039u,24-Jan-2021 06:13:47,23-Jan-2021 22:13:47,33.15526,-120.00642,086.7 055.0,086.7,055.0,493.000,497.104,,6.1637,,6.1637,,6.1637,34.2806,,34.2864,34.2774,,34.2794,34.2829,0.3458,,0.3618,0.3675,0.3505,,0.3703,0.3792,0.3734,15.040,16.0041,36.0229,15.242,17.1771,36.7938,36.4084,0.0323,,,, ,, , ,26.9689,,26.9664,,0.7033,83.8770,,,,3.5749E+00,,1.0000E-12,,6.1198,6.1198,0.9255,114.882,5.001,5.068,,,,,,,,,,,,
CalCOFI,2101RL,039,,2101_039u,24-Jan-2021 06:13:48,23-Jan-2021 22:13:48,33.15526,-120.00642,086.7 055.0,086.7,055.0,492.000,496.094,,6.1635,,6.1630,,6.1633,34.2802,,34.2860,34.2774,,34.2794,34.2827,0.3530,,0.3693,0.3751,0.3491,,0.3688,0.3777,0.3764,15.352,16.3307,36.2596,15.183,17.5241,36.7484,36.5040,0.0335,,,, ,, , ,26.9686,,26.9665,,0.7033,83.8772,,,,3.6974E+00,,1.0000E-12,,6.1197,6.1192,0.9255,114.894,5.105,5.048,,,,,,,,,,,,
CalCOFI,2101RL,039,,2101_039u,24-Jan-2021 06:13:49,23-Jan-2021 22:13:49,33.15526,-120.00644,086.7 055.0,086.7,055.0,491.000,495.085,,6.1719,,6.1680,,6.1700,34.2791,,34.2849,34.2769,,34.2789,34.2819,0.3575,,0.3741,0.3798,0.3598,,0.3801,0.3891,0.3845,15.545,16.5327,36.4061,15.648,17.7387,37.1058,36.7560,0.0334,,,, ,, , ,26.9667,,26.9654,,0.7033,83.8772,,,,3.6947E+00,,1.0000E-12,,6.1282,6.1243,0.9255,115.074,5.170,5.204,,,,,,,,,,,,
CalCOFI,2101RL,039,,2101_039u,24-Jan-2021 06:13:50,23-Jan-2021 22:13:50,33.15526,-120.00644,086.7 055.0,086.7,055.0,490.000,494.075,,6.1893,,6.2002,,6.1948,34.2775,,34.2833,34.2730,,34.2750,34.2792,0.3565,,0.3730,0.3788,0.3548,,0.3748,0.3838,0.3813,15.504,16.4898,36.3750,15.428,17.6931,36.9367,36.6559,0.0337,,,, ,, , ,26.9632,,26.9583,,0.7033,83.8772,,,,3.6947E+00,,1.0000E-12,,6.1456,6.1565,0.9255,115.407,5.158,5.134,,,,,,,,,,,,
CalCOFI,2101RL,039,,2101_039u,24-Jan-2021 06:13:51,23-Jan-2021 22:13:51,33.15526,-120.00644,086.7 055.0,086.7,055.0,489.000,493.066,,6.1946,,6.2089,,6.2018,34.2761,,34.2819,34.2717,,34.2737,34.2778,0.3608,,0.3775,0.3833,0.3630,,0.3835,0.3926,0.3880,15.692,16.6866,36.5176,15.785,17.9022,37.2110,36.8643,0.0333,,,, ,, , ,26.9614,,26.9561,,0.7033,83.8772,,,,3.6947E+00,,1.0000E-12,,6.1509,6.1653,0.9255,115.566,5.222,5.254,,,,,,,,,,,,
CalCOFI,2101RL,039,,2101_039u,24-Jan-2021 06:13:52,23-Jan-2021 22:13:52,33.15524,-120.00644,086.7 055.0,086.7,055.0,488.000,492.056,,6.1969,,6.1979,,6.1974,34.2764,,34.2822,34.2732,,34.2752,34.2787,0.3695,,0.3866,0.3924,0.3684,,0.3893,0.3983,0.3954,16.068,17.0802,36.8029,16.019,18.3203,37.3909,37.0969,0.0327,,,, ,, , ,26.9613,,26.9587,,0.7038,83.8668,,,,3.6947E+00,,1.0000E-12,,6.1534,6.1544,0.9255,115.565,5.347,5.331,,,,,,,,,,,,
CalCOFI,2101RL,039,,2101_039u,24-Jan-2021 06:13:53,23-Jan-2021 22:13:53,33.15524,-120.00644,086.7 055.0,086.7,055.0,487.000,491.047,,6.2121,,6.2158,,6.2140,34.2741,,34.2799,34.2709,,34.2729,34.2764,0.3773,,0.3948,0.4006,0.3726,,0.3937,0.4028,0.4017,16.408,17.4361,37.0610,16.202,18.6984,37.5315,37.2963,0.0330,,,, ,, , ,26.9576,,26.9545,,0.7033,83.8774,,,,3.6947E+00,,1.0000E-12,,6.1686,6.1723,0.9255,115.917,5.462,5.394,,,,,,,,,,,,
CalCOFI,2101RL,039,,2101_039u,24-Jan-2021 06:13:54,23-Jan-2021 22:13:54,33.15524,-120.00644,086.7 055.0,086.7,055.0,486.000,490.037,,6.2208,,6.2400,,6.2304,34.2734,,34.2792,34.2685,,34.2705,34.2749,0.3799,,0.3975,0.4034,0.3765,,0.3979,0.4070,0.4052,16.522,17.5554,37.1475,16.373,18.8251,37.6629,37.4052,0.0330,,,, ,, , ,26.9558,,26.9495,,0.7033,83.8772,,,,3.6947E+00,,1.0000E-12,,6.1774,6.1965,0.9255,116.078,5.501,5.453,,,,,,,,,,,,
CalCOFI,2101RL,039,,2101_039u,24-Jan-2021 06:13:55,23-Jan-2021 22:13:55,33.15524,-120.00644,086.7 055.0,086.7,055.0,485.000,489.027,,6.2446,,6.2530,,6.2488,34.2705,,34.2763,34.2669,,34.2689,34.2726,0.3816,,0.3993,0.4052,0.3756,,0.3969,0.4060,0.4056,16.594,17.6308,37.2021,16.333,18.9052,37.6322,37.4172,0.0325,,,, ,, , ,26.9506,,26.9466,,0.7033,83.8772,,,,3.6947E+00,,1.0000E-12,,6.2012,6.2096,0.9255,116.588,5.528,5.442,,,,,,,,,,,,
CalCOFI,2101RL,039,,2101_039u,24-Jan-2021 06:13:55,23-Jan-2021 22:13:55,33.15526,-120.00644,086.7 055.0,086.7,055.0,484.000,488.018,,6.2551,,6.2617,,6.2584,34.2697,,34.2755,34.2663,,34.2683,34.2719,0.3804,,0.3980,0.4039,0.3799,,0.4015,0.4106,0.4073,16.543,17.5774,37.1634,16.522,18.8485,37.7774,37.4704,0.0326,,,, ,, , ,26.9485,,26.9450,,0.7033,83.8772,,,,3.6947E+00,,1.0000E-12,,6.2117,6.2183,0.9255,116.778,5.512,5.506,,,,,,,,,,,,
CalCOFI,2101RL,039,,2101_039u,24-Jan-2021 06:13:56,23-Jan-2021 22:13:56,33.15526,-120.00644,086.7 055.0,086.7,055.0,483.000,487.009,,6.2659,,6.2687,,6.2673,34.2694,,34.2752,34.2662,,34.2682,34.2717,0.3783,,0.3958,0.4017,0.3780,,0.3995,0.4086,0.4052,16.450,17.4801,37.0928,16.436,18.7451,37.7113,37.4021,0.0338,,,, ,, , ,26.9469,,26.9440,,0.7033,83.8772,,,,3.6947E+00,,1.0000E-12,,6.2226,6.2254,0.9255,116.930,5.483,5.478,,,,,,,,,,,,
CalCOFI,2101RL,039,,2101_039u,24-Jan-2021 06:13:57,23-Jan-2021 22:13:57,33.15526,-120.00644,086.7 055.0,086.7,055.0,482.000,485.999,,6.2775,,6.2809,,6.2792,34.2693,,34.2751,34.2665,,34.2685,34.2718,0.3795,,0.3971,0.4030,0.3822,,0.4039,0.4131,0.4081,16.506,17.5387,37.1353,16.620,18.8073,37.8527,37.4940,0.0333,,,, ,, , ,26.9453,,26.9426,,0.7033,83.8772,,,,3.6947E+00,,1.0000E-12,,6.2342,6.2376,0.9255,117.074,5.502,5.541,,,,,,,,,,,,
CalCOFI,2101RL,039,,2101_039u,24-Jan-2021 06:13:58,23-Jan-2021 22:13:58,33.15526,-120.00644,086.7 055.0,086.7,055.0,481.000,484.990,,6.2765,,6.2802,,6.2784,34.2696,,34.2754,34.2673,,34.2693,34.2724,0.3788,,0.3964,0.4022,0.3778,,0.3993,0.4084,0.4053,16.473,17.5041,37.1103,16.431,18.7706,37.7075,37.4089,0.0333,,,, ,, , ,26.9456,,26.9434,,0.7033,83.8772,,,,3.6947E+00,,1.0000E-12,,6.2334,6.2370,0.9255,117.029,5.491,5.478,,,,,,,,,,,,
CalCOFI,2101RL,039,,2101_039u,24-Jan-2021 06:13:59,23-Jan-2021 22:13:59,33.15524,-120.00644,086.7 055.0,086.7,055.0,480.000,483.980,,6.2634,,6.2606,,6.2620,34.2697,,34.2755,34.2671,,34.2691,34.2723,0.3766,,0.3940,0.3999,0.3800,,0.4016,0.4107,0.4053,16.379,17.4057,37.0389,16.526,18.6661,37.7805,37.4097,0.0329,,,, ,, , ,26.9474,,26.9457,,0.7037,83.8688,,,,3.6947E+00,,1.0000E-12,,6.2204,6.2176,0.9255,116.834,5.459,5.507,,,,,,,,,,,,
CalCOFI,2101RL,039,,2101_039u,24-Jan-2021 06:14:00,23-Jan-2021 22:14:00,33.15524,-120.00644,086.7 055.0,086.7,055.0,479.000,482.971,,6.2771,,6.2593,,6.2682,34.2696,,34.2754,34.2670,,34.2690,34.2722,0.3765,,0.3939,0.3998,0.3768,,0.3982,0.4073,0.4036,16.372,17.3984,37.0336,16.386,18.6583,37.6729,37.3533,0.0326,,,, ,, , ,26.9455,,26.9458,,0.7033,83.8774,,,,3.6947E+00,,1.0000E-12,,6.2341,6.2164,0.9255,117.009,5.458,5.460,,,,,,,,,,,,
CalCOFI,2101RL,039,,2101_039u,24-Jan-2021 06:14:02,23-Jan-2021 22:14:02,33.15524,-120.00644,086.7 055.0,086.7,055.0,478.000,481.961,,6.2870,,6.2840,,6.2855,34.2695,,34.2753,34.2663,,34.2683,34.2718,0.3763,,0.3937,0.3996,0.3819,,0.4036,0.4128,0.4062,16.366,17.3921,37.0291,16.609,18.6517,37.8442,37.4367,0.0324,,,, ,, , ,26.9442,,26.9421,,0.7033,83.8772,,,,3.6947E+00,,1.0000E-12,,6.2441,6.2411,0.9255,117.132,5.457,5.538,,,,,,,,,,,,
CalCOFI,2101RL,039,,2101_039u,24-Jan-2021 06:14:03,23-Jan-2021 22:14:03,33.15524,-120.00644,086.7 055.0,086.7,055.0,477.000,480.952,,6.2877,,6.3032,,6.2955,34.2697,,34.2755,34.2661,,34.2681,34.2718,0.3793,,0.3969,0.4028,0.3765,,0.3979,0.4070,0.4049,16.495,17.5272,37.1270,16.372,18.7951,37.6621,37.3946,0.0330,,,, ,, , ,26.9443,,26.9394,,0.7033,83.8772,,,,3.6947E+00,,1.0000E-12,,6.2449,6.2603,0.9255,117.110,5.500,5.461,,,,,,,,,,,,
CalCOFI,2101RL,039,,2101_039u,24-Jan-2021 06:14:04,23-Jan-2021 22:14:04,33.15524,-120.00644,086.7 055.0,086.7,055.0,476.000,479.942,,6.3001,,6.3057,,6.3029,34.2693,,34.2751,34.2661,,34.2681,34.2716,0.3835,,0.4013,0.4072,0.3748,,0.3961,0.4052,0.4062,16.676,17.7166,37.2643,16.298,18.9964,37.6053,37.4348,0.0312,,,, ,, , ,26.9424,,26.9391,,0.7034,83.8750,,,,3.6947E+00,,1.0000E-12,,6.2573,6.2629,0.9255,117.291,5.562,5.437,,,,,,,,,,,,
CalCOFI,2101RL,039,,2101_039u,24-Jan-2021 06:14:04,23-Jan-2021 22:14:04,33.15524,-120.00644,086.7 055.0,086.7,055.0,475.000,478.933,,6.3024,,6.3079,,6.3052,34.2689,,34.2747,34.2659,,34.2679,34.2713,0.3818,,0.3995,0.4054,0.3822,,0.4039,0.4131,0.4093,16.603,17.6402,37.2089,16.623,18.9152,37.8550,37.5320,0.0329,,,, ,, , ,26.9417,,26.9386,,0.7033,83.8772,,,,3.6947E+00,,1.0000E-12,,6.2597,6.2652,0.9255,117.340,5.538,5.545,,,,,,,,,,,,
CalCOFI,2101RL,039,,2101_039u,24-Jan-2021 06:14:05,23-Jan-2021 22:14:05,33.15524,-120.00646,086.7 055.0,086.7,055.0,474.000,477.923,,6.3049,,6.3130,,6.3090,34.2688,,34.2746,34.2654,,34.2674,34.2710,0.3824,,0.4001,0.4060,0.3886,,0.4107,0.4199,0.4130,16.631,17.6695,37.2302,16.899,18.9463,38.0671,37.6487,0.0318,,,, ,, , ,26.9412,,26.9376,,0.7036,83.8711,,,,3.6947E+00,,1.0000E-12,,6.2623,6.2703,0.9255,117.372,5.548,5.638,,,,,,,,,,,,
CalCOFI,2101RL,039,,2101_039u,24-Jan-2021 06:14:06,23-Jan-2021 22:14:06,33.15524,-120.00646,086.7 055.0,086.7,055.0,473.000,476.914,,6.3143,,6.3170,,6.3157,34.2682,,34.2740,34.2650,,34.2670,34.2705,0.3879,,0.4059,0.4118,0.3867,,0.4087,0.4179,0.4149,16.869,17.9187,37.4108,16.816,19.2110,38.0033,37.7071,0.0330,,,, ,, , ,26.9396,,26.9367,,0.7033,83.8771,,,,3.6947E+00,,1.0000E-12,,6.2718,6.2744,0.9255,117.527,5.628,5.611,,,,,,,,,,,,
CalCOFI,2101RL,039,,2101_039u,24-Jan-2021 06:14:07,23-Jan-2021 22:14:07,33.15524,-120.00646,086.7 055.0,086.7,055.0,472.000,475.905,,6.3210,,6.3226,,6.3218,34.2677,,34.2735,34.2647,,34.2667,34.2701,0.3859,,0.4038,0.4097,0.3906,,0.4129,0.4221,0.4159,16.780,17.8255,37.3432,16.987,19.1120,38.1347,37.7390,0.0341,,,, ,, , ,26.9383,,26.9358,,0.7046,83.8488,,,,3.6947E+00,,1.0000E-12,,6.2785,6.2801,0.9255,117.640,5.599,5.669,,,,,,,,,,,,
CalCOFI,2101RL,039,,2101_039u,24-Jan-2021 06:14:08,23-Jan-2021 22:14:08,33.15523,-120.00646,086.7 055.0,086.7,055.0,471.000,474.895,,6.3220,,6.3261,,6.3241,34.2676,,34.2734,34.2645,,34.2665,34.2700,0.3900,,0.4081,0.4140,0.3859,,0.4079,0.4171,0.4156,16.963,18.0171,37.4821,16.781,19.3155,37.9764,37.7293,0.0326,,,, ,, , ,26.9381,,26.9351,,0.7033,83.8778,,,,3.6947E+00,,1.0000E-12,,6.2796,6.2837,0.9255,117.646,5.661,5.600,,,,,,,,,,,,
CalCOFI,2101RL,039,,2101_039u,24-Jan-2021 06:14:09,23-Jan-2021 22:14:09,33.15522,-120.00648,086.7 055.0,086.7,055.0,470.000,473.886,,6.3251,,6.3273,,6.3262,34.2672,,34.2730,34.2642,,34.2662,34.2696,0.3918,,0.4100,0.4159,0.3838,,0.4056,0.4148,0.4154,17.039,18.0966,37.5398,16.693,19.4000,37.9088,37.7243,0.0332,,,, ,, , ,26.9374,,26.9347,,0.7033,83.8772,,,,3.6947E+00,,1.0000E-12,,6.2828,6.2850,0.9255,117.698,5.686,5.571,,,,,,,,,,,,
CalCOFI,2101RL,039,,2101_039u,24-Jan-2021 06:14:09,23-Jan-2021 22:14:09,33.15522,-120.00648,086.7 055.0,086.7,055.0,469.000,472.876,,6.3271,,6.3313,,6.3292,34.2669,,34.2727,34.2636,,34.2656,34.2692,0.3869,,0.4048,0.4107,0.3853,,0.4072,0.4164,0.4136,16.825,17.8726,37.3774,16.757,19.1621,37.9580,37.6677,0.0329,,,, ,, , ,26.9369,,26.9337,,0.7034,83.8742,,,,3.6947E+00,,1.0000E-12,,6.2849,6.2890,0.9255,117.734,5.615,5.593,,,,,,,,,,,,
CalCOFI,2101RL,039,,2101_039u,24-Jan-2021 06:14:10,23-Jan-2021 22:14:10,33.15522,-120.00648,086.7 055.0,086.7,055.0,468.000,471.867,,6.3271,,6.3364,,6.3318,34.2666,,34.2724,34.2631,,34.2651,34.2688,0.3871,,0.4050,0.4110,0.3934,,0.4158,0.4251,0.4181,16.837,17.8852,37.3865,17.107,19.1754,38.2269,37.8067,0.0323,,,, ,, , ,26.9366,,26.9327,,0.7034,83.8747,,,,3.6947E+00,,1.0000E-12,,6.2849,6.2942,0.9255,117.747,5.619,5.710,,,,,,,,,,,,
CalCOFI,2101RL,039,,2101_039u,24-Jan-2021 06:14:12,23-Jan-2021 22:14:12,33.15522,-120.00649,086.7 055.0,086.7,055.0,467.000,470.858,,6.3278,,6.3314,,6.3296,34.2660,,34.2718,34.2639,,34.2659,34.2689,0.3942,,0.4125,0.4184,0.3907,,0.4130,0.4222,0.4203,17.141,18.2034,37.6172,16.990,19.5135,38.1370,37.8771,0.0329,,,, ,, , ,26.9360,,26.9339,,0.7062,83.8158,,,,3.6947E+00,,1.0000E-12,,6.2857,6.2894,0.9255,117.787,5.721,5.671,,,,,,,,,,,,
CalCOFI,2101RL,039,,2101_039u,24-Jan-2021 06:14:13,23-Jan-2021 22:14:13,33.15522,-120.00650,086.7 055.0,086.7,055.0,466.000,469.848,,6.3329,,6.3246,,6.3288,34.2658,,34.2716,34.2643,,34.2663,34.2690,0.3951,,0.4134,0.4194,0.3970,,0.4197,0.4289,0.4242,17.183,18.2474,37.6491,17.266,19.5602,38.3491,37.9991,0.0329,,,, ,, , ,26.9352,,26.9351,,0.7057,83.8270,,,,3.6947E+00,,1.0000E-12,,6.2910,6.2827,0.9255,117.852,5.736,5.762,,,,,,,,,,,,